World > North America > United States > Nebraska

Brainard, Nebraska Regional Weather

Lat: 41.18N, Lon: 97W
Wx Zone: NEZ050Web Search
Brainard Weather Warning NWS WEATHER ALERT FOR THE BRAINARD, NE AREA - Issued: 319 AM CST Thu Nov 26 2020 Brainard Weather Warning  

Helpful Tip: Abbreviated, 7 Day, 14 Day Forecasts. There is a weather forecast for every taste.

Feedback
Brainard Weather Map
UTC Time: 11/26/2020, 17:51
Your Time:

Brainard, NE Regional Weather

Expires:202011261700;;434154
ASUS43 KOAX 261610
RWRNE 

WEATHER ROUNDUP FOR NEBRASKA
NATIONAL WEATHER SERVICE OMAHA NE
1000 AM CST THU NOV 26 2020

NOTES: SATELLITE DATA IS BEING USED TO AUGMENT CLOUD COVER ABOVE
       12000 FEET.
       "FAIR" INDICATES FEW OR NO CLOUDS BELOW 12,000 FEET WITH NO
       SIGNIFICANT WEATHER AND/OR OBSTRUCTIONS TO VISIBILITY.

   

NEZ050>053-065>068-078-088>093-261700-
SOUTHEAST NEBRASKA
  
CITY           SKY/WX    TMP DP  RH WIND       PRES   REMARKS
LINCOLN        SUNNY     41  30  65 VRB3      30.02R                  
OMAHA EPPLEY   SUNNY     41  30  65 NW9       29.99R                  
BEATRICE       SUNNY     39  32  77 W6        30.02R WCI  34          
FALLS CITY     SUNNY     38  32  79 NW7       30.04R WCI  33          
NEBRASKA CITY  SUNNY     39  35  84 W12       30.01R WCI  32          
PLATTSMOUTH    SUNNY     39  32  77 SW9       29.99S WCI  32          
$$


SKY/WX - Weather  TMP - Temperature  DP - Dew Point  RH - Relative Humidity
WIND - Wind Direction/Speed PRES - Barometric Pressure VSB - Visibility
WCI - Wind Chill Index E13G22 Wind - East Wind 13 mph/Gusts of 22 mph